Weather History for Lordsburg, NM

Change the Weather History Date:

Sunday, March 10, 2013

  Actual Average Record
Temperature  
Mean Temperature 44 °F -  
Max Temperature 57 °F 69 °F 69 °F (2014)
Min Temperature 32 °F 33 °F 32 °F (2013)
Degree Days  
Heating Degree Days 20    
Moisture  
Dew Point 30 °F    
Average Humidity 63    
Maximum Humidity 100    
Minimum Humidity 29    
Precipitation  
Precipitation 0.00 in - - ()
Sea Level Pressure  
Sea Level Pressure 30.11 in    
Wind  
Wind Speed 5 mph (WNW)    
Max Wind Speed 13 mph    
Max Gust Speed 17 mph    
Visibility 10 miles    
Events      
Averages and records for this station are not official NWS values.
T = Trace of Precipitation, MM = Missing Value Source: NWS Daily Summary

Daily Weather History Graph

Daily Weather History Graph

Search for Another Location

Airport:

Trip Planner

Search our weather history database for the weather conditions in past years. The results will help you decide how hot, cold, wet, or windy it might be!

Date:

Astronomy

Mar. 10, 2013 Rise Set
Actual Time 7:30 AM MDT 7:19 PM MDT
Civil Twilight 7:06 AM MDT 7:43 PM MDT
Nautical Twilight 6:38 AM MDT 8:12 PM MDT
Astronomical Twilight 6:09 AM MDT 8:40 PM MDT
Moon 6:30 AM MDT (3/10) 6:30 PM MDT (3/10)
Length of Visible Light 12h 37m
Length of Day
11h 48m
Waning Crescent, 1% of the Moon is Illuminated
Mar 10
Waning Crescent
Mar 11
New
Mar 19
First Quarter
Mar 27
Full
Apr 2
Last Quarter

Hourly Weather History & Observations

Time (MDT) Temp. Windchill Dew Point Humidity Pressure Visibility Wind Dir Wind Speed Gust Speed Precip Events Conditions
12:15 AM 35.6 °F 30.7 °F 32.0 °F 87% 30.06 in 10.0 mi NW 5.8 mph - N/A   Clear
12:35 AM 35.6 °F - 32.0 °F 87% 30.06 in 10.0 mi Calm Calm - N/A   Clear
12:55 AM 32.0 °F 28.7 °F 32.0 °F 100% 30.07 in 10.0 mi South 3.5 mph - N/A   Clear
1:15 AM 32.0 °F 28.7 °F 32.0 °F 100% 30.06 in 10.0 mi WNW 3.5 mph - N/A   Clear
1:35 AM 32.0 °F 28.7 °F 30.2 °F 93% 30.07 in 10.0 mi West 3.5 mph - N/A   Clear
1:55 AM 32.0 °F 27.5 °F 30.2 °F 93% 30.07 in 10.0 mi NW 4.6 mph - N/A   Clear
3:15 AM 32.0 °F 28.7 °F 32.0 °F 100% 30.07 in 10.0 mi West 3.5 mph - N/A   Clear
3:35 AM 32.0 °F 25.6 °F 30.2 °F 93% 30.06 in 10.0 mi WNW 6.9 mph - N/A   Clear
3:55 AM 32.0 °F 27.5 °F 32.0 °F 100% 30.06 in 10.0 mi West 4.6 mph - N/A   Clear
4:15 AM 32.0 °F 26.4 °F 30.2 °F 93% 30.06 in 10.0 mi WNW 5.8 mph - N/A   Clear
4:35 AM 32.0 °F - 30.2 °F 93% 30.06 in 10.0 mi Calm Calm - N/A   Clear
4:55 AM 32.0 °F - 30.2 °F 93% 30.07 in 10.0 mi Calm Calm - N/A   Clear
5:15 AM 32.0 °F 28.7 °F 30.2 °F 93% 30.07 in 10.0 mi NW 3.5 mph - N/A   Scattered Clouds
5:35 AM 32.0 °F 28.7 °F 30.2 °F 93% 30.07 in 10.0 mi NW 3.5 mph - N/A   Overcast
6:35 AM 33.8 °F 29.6 °F 32.0 °F 93% 30.09 in 10.0 mi NNW 4.6 mph - N/A   Overcast
6:55 AM 33.8 °F 29.6 °F 32.0 °F 93% 30.10 in 10.0 mi NW 4.6 mph - N/A   Overcast
7:15 AM 33.8 °F 30.8 °F 32.0 °F 93% 30.10 in 10.0 mi NW 3.5 mph - N/A   Overcast
7:35 AM 33.8 °F 30.8 °F 32.0 °F 93% 30.09 in 10.0 mi NW 3.5 mph - N/A   Overcast
7:55 AM 33.8 °F 29.6 °F 32.0 °F 93% 30.10 in 10.0 mi West 4.6 mph - N/A   Overcast
8:15 AM 33.8 °F 30.8 °F 32.0 °F 93% 30.10 in 10.0 mi West 3.5 mph - N/A   Mostly Cloudy
8:35 AM 35.6 °F 30.7 °F 32.0 °F 87% 30.10 in 10.0 mi West 5.8 mph - N/A   Clear
8:55 AM 37.4 °F - 33.8 °F 87% 30.12 in 10.0 mi Calm Calm - N/A   Clear
9:15 AM 39.2 °F 33.0 °F 33.8 °F 81% 30.12 in 10.0 mi NW 9.2 mph - N/A   Mostly Cloudy
9:35 AM 41.0 °F 35.8 °F 33.8 °F 76% 30.13 in 10.0 mi NW 8.1 mph - N/A   Mostly Cloudy
9:55 AM 42.8 °F 37.5 °F 33.8 °F 70% 30.14 in 10.0 mi NW 9.2 mph - N/A   Mostly Cloudy
10:15 AM 42.8 °F 37.5 °F 33.8 °F 70% 30.14 in 10.0 mi NW 9.2 mph - N/A   Overcast
10:35 AM 44.6 °F 40.7 °F 32.0 °F 61% 30.14 in 10.0 mi NW 6.9 mph - N/A   Overcast
10:55 AM 44.6 °F 40.2 °F 32.0 °F 61% 30.14 in 10.0 mi NW 8.1 mph - N/A   Overcast
11:15 AM 46.4 °F 42.9 °F 33.8 °F 62% 30.14 in 10.0 mi NW 6.9 mph - N/A   Overcast
11:35 AM 48.2 °F - 33.8 °F 58% 30.13 in 10.0 mi NW 10.4 mph - N/A   Overcast
11:55 AM 48.2 °F - 32.0 °F 54% 30.12 in 10.0 mi WNW 8.1 mph - N/A   Scattered Clouds
12:15 PM 50.0 °F - 32.0 °F 50% 30.12 in 10.0 mi NW 10.4 mph 17.3 mph N/A   Clear
12:35 PM 51.8 °F - 32.0 °F 47% 30.12 in 10.0 mi NW 5.8 mph - N/A   Scattered Clouds
12:55 PM 51.8 °F - 32.0 °F 47% 30.11 in 10.0 mi NW 6.9 mph - N/A   Mostly Cloudy
1:15 PM 51.8 °F - 32.0 °F 47% 30.10 in 10.0 mi NNW 10.4 mph - N/A   Scattered Clouds
1:35 PM 53.6 °F - 28.4 °F 38% 30.10 in 10.0 mi NNW 10.4 mph - N/A   Clear
1:55 PM 53.6 °F - 28.4 °F 38% 30.09 in 10.0 mi West 4.6 mph - N/A   Clear
2:15 PM 55.4 °F - 28.4 °F 36% 30.08 in 10.0 mi NNE 6.9 mph - N/A   Clear
2:35 PM 55.4 °F - 26.6 °F 33% 30.08 in 10.0 mi WNW 6.9 mph - N/A   Clear
2:55 PM 57.2 °F - 26.6 °F 31% 30.08 in 10.0 mi West 5.8 mph - N/A   Scattered Clouds
3:15 PM 55.4 °F - 26.6 °F 33% 30.08 in 10.0 mi NW 9.2 mph 17.3 mph N/A   Scattered Clouds
3:35 PM 57.2 °F - 26.6 °F 31% 30.07 in 10.0 mi West 10.4 mph - N/A   Clear
3:55 PM 55.4 °F - 24.8 °F 31% 30.07 in 10.0 mi West 10.4 mph - N/A   Clear
4:15 PM 57.2 °F - 26.6 °F 31% 30.07 in 10.0 mi WNW 12.7 mph 17.3 mph N/A   Scattered Clouds
4:35 PM 55.4 °F - 23.0 °F 29% 30.07 in 10.0 mi WNW 4.6 mph 16.1 mph N/A   Scattered Clouds
4:55 PM 57.2 °F - 24.8 °F 29% 30.07 in 10.0 mi NW 8.1 mph 17.3 mph N/A   Clear
5:15 PM 57.2 °F - 26.6 °F 31% 30.07 in 10.0 mi NW 11.5 mph 16.1 mph N/A   Clear
5:35 PM 57.2 °F - 26.6 °F 31% 30.08 in 10.0 mi NW 10.4 mph - N/A   Clear
5:55 PM 57.2 °F - 26.6 °F 31% 30.08 in 10.0 mi WNW 4.6 mph - N/A   Clear
6:15 PM 57.2 °F - 26.6 °F 31% 30.09 in 10.0 mi NW 5.8 mph - N/A   Clear
6:35 PM 55.4 °F - 26.6 °F 33% 30.10 in 10.0 mi NW 8.1 mph - N/A   Clear
6:55 PM 55.4 °F - 26.6 °F 33% 30.10 in 10.0 mi West 8.1 mph - N/A   Clear
7:15 PM 53.6 °F - 26.6 °F 35% 30.10 in 10.0 mi SW 3.5 mph - N/A   Clear
7:35 PM 51.8 °F - 26.6 °F 38% 30.11 in 10.0 mi West 4.6 mph - N/A   Clear
8:15 PM 46.4 °F 42.9 °F 28.4 °F 50% 30.13 in 10.0 mi WSW 6.9 mph - N/A   Clear
8:35 PM 46.4 °F 42.9 °F 28.4 °F 50% 30.14 in 10.0 mi WSW 6.9 mph - N/A   Clear
8:55 PM 48.2 °F - 28.4 °F 46% 30.14 in 10.0 mi WSW 8.1 mph - N/A   Clear
9:15 PM 46.4 °F 43.5 °F 28.4 °F 50% 30.15 in 10.0 mi West 5.8 mph - N/A   Clear
9:35 PM 44.6 °F 41.4 °F 28.4 °F 53% 30.16 in 10.0 mi West 5.8 mph - N/A   Clear
9:55 PM 44.6 °F 42.2 °F 28.4 °F 53% 30.16 in 10.0 mi WSW 4.6 mph - N/A   Clear
10:15 PM 42.8 °F 41.1 °F 28.4 °F 57% 30.17 in 10.0 mi WSW 3.5 mph - N/A   Clear
10:35 PM 44.6 °F - 28.4 °F 53% 30.18 in 10.0 mi Calm Calm - N/A   Clear
11:15 PM 41.0 °F - 28.4 °F 61% 30.18 in 10.0 mi Calm Calm - N/A   Clear
11:35 PM 39.2 °F - 28.4 °F 65% 30.18 in 10.0 mi Calm Calm - N/A   Clear
11:55 PM 39.2 °F - 28.4 °F 65% 30.17 in 10.0 mi Calm Calm - N/A   Clear
12:15 AM 35.6 °F 32.8 °F 28.4 °F 75% 30.18 in 10.0 mi West 3.5 mph - N/A   Clear
12:55 AM 37.4 °F - 28.4 °F 70% 30.18 in 10.0 mi Calm Calm - N/A   Clear